TimeCDT,TemperatureF,Dew PointF,Humidity,Sea Level PressureIn,VisibilityMPH,Wind Direction,Wind SpeedMPH,Gust SpeedMPH,PrecipitationIn,Events,Conditions,WindDirDegrees,DateUTC
12:15 AM,43.0,29.5,59,29.90,10.0,South,4.6,-,N/A,,Overcast,180,2013-04-25 05:15:00
12:35 AM,43.2,29.5,59,29.89,10.0,SSW,6.9,-,N/A,,Overcast,200,2013-04-25 05:35:00
12:55 AM,44.1,28.4,54,29.89,10.0,SSW,5.8,-,N/A,,Overcast,210,2013-04-25 05:55:00
1:15 AM,44.8,29.1,54,29.89,10.0,SW,16.1,25.3,N/A,,Overcast,230,2013-04-25 06:15:00
1:35 AM,43.0,32.0,65,29.88,10.0,SW,6.9,19.6,N/A,,Overcast,220,2013-04-25 06:35:00
1:55 AM,43.2,32.0,65,29.87,10.0,SSW,16.1,19.6,N/A,,Overcast,210,2013-04-25 06:55:00
2:15 AM,42.8,32.0,66,29.86,10.0,SSW,9.2,24.2,N/A,,Overcast,210,2013-04-25 07:15:00
2:35 AM,41.9,32.4,69,29.86,10.0,SW,11.5,-,N/A,,Overcast,220,2013-04-25 07:35:00
2:55 AM,41.9,32.5,69,29.85,10.0,SW,9.2,-,N/A,,Overcast,230,2013-04-25 07:55:00
3:15 AM,37.6,34.5,89,29.86,5.0,WSW,13.8,32.2,N/A,,Overcast,240,2013-04-25 08:15:00
3:35 AM,37.4,34.0,87,29.87,10.0,West,17.3,23.0,N/A,,Overcast,270,2013-04-25 08:35:00
3:55 AM,36.9,33.3,87,29.89,10.0,WNW,12.7,21.9,N/A,,Overcast,290,2013-04-25 08:55:00
4:15 AM,36.0,32.5,87,29.89,10.0,WNW,9.2,17.3,N/A,,Mostly Cloudy,290,2013-04-25 09:15:00
4:35 AM,35.8,32.5,88,29.91,10.0,WNW,8.1,-,N/A,,Mostly Cloudy,290,2013-04-25 09:35:00
4:55 AM,34.9,32.0,89,29.92,10.0,West,9.2,-,N/A,,Scattered Clouds,280,2013-04-25 09:55:00
5:15 AM,34.3,32.0,91,29.92,10.0,West,9.2,-,N/A,,Clear,280,2013-04-25 10:15:00
5:35 AM,33.8,31.6,92,29.93,10.0,West,8.1,-,N/A,,Clear,280,2013-04-25 10:35:00
5:55 AM,33.8,31.5,91,29.93,10.0,West,9.2,-,N/A,,Clear,270,2013-04-25 10:55:00
6:15 AM,34.0,31.1,89,29.94,10.0,West,10.4,-,N/A,,Clear,280,2013-04-25 11:15:00
6:35 AM,34.7,31.1,87,29.96,10.0,West,11.5,-,N/A,,Scattered Clouds,280,2013-04-25 11:35:00
6:55 AM,35.4,31.1,84,29.97,10.0,West,12.7,18.4,N/A,,Scattered Clouds,280,2013-04-25 11:55:00
7:15 AM,36.5,31.1,81,29.98,10.0,West,12.7,18.4,N/A,,Clear,280,2013-04-25 12:15:00
7:35 AM,37.4,31.6,80,29.99,10.0,WNW,13.8,19.6,N/A,,Clear,290,2013-04-25 12:35:00
7:55 AM,38.1,31.3,76,30.00,10.0,WNW,13.8,18.4,N/A,,Clear,290,2013-04-25 12:55:00
8:15 AM,39.2,31.3,73,30.01,10.0,West,11.5,16.1,N/A,,Clear,280,2013-04-25 13:15:00
8:35 AM,40.3,30.2,67,30.02,10.0,WNW,9.2,18.4,N/A,,Clear,290,2013-04-25 13:35:00
8:55 AM,40.6,29.3,64,30.03,10.0,NW,10.4,18.4,N/A,,Clear,320,2013-04-25 13:55:00
9:15 AM,41.9,30.4,64,30.04,10.0,WNW,12.7,18.4,N/A,,Scattered Clouds,290,2013-04-25 14:15:00
9:35 AM,40.8,28.9,63,30.05,10.0,NW,11.5,19.6,N/A,,Mostly Cloudy,310,2013-04-25 14:35:00
9:55 AM,42.4,29.3,60,30.06,10.0,NW,12.7,19.6,N/A,,Mostly Cloudy,320,2013-04-25 14:55:00
10:15 AM,43.2,28.4,56,30.07,10.0,NW,10.4,18.4,N/A,,Mostly Cloudy,310,2013-04-25 15:15:00
10:35 AM,45.1,29.1,54,30.08,10.0,WNW,12.7,19.6,N/A,,Mostly Cloudy,290,2013-04-25 15:35:00
10:55 AM,43.7,27.5,53,30.09,10.0,NW,10.4,21.9,N/A,,Mostly Cloudy,310,2013-04-25 15:55:00
11:15 AM,45.9,27.1,48,30.09,10.0,NW,13.8,18.4,N/A,,Scattered Clouds,310,2013-04-25 16:15:00
11:35 AM,46.0,27.1,48,30.10,10.0,NW,12.7,17.3,N/A,,Scattered Clouds,310,2013-04-25 16:35:00
11:55 AM,46.4,26.6,46,30.11,10.0,WNW,11.5,-,N/A,,Mostly Cloudy,290,2013-04-25 16:55:00
12:15 PM,46.2,26.8,47,30.11,10.0,WNW,9.2,19.6,N/A,,Mostly Cloudy,300,2013-04-25 17:15:00
12:35 PM,47.3,26.1,44,30.11,10.0,WNW,9.2,23.0,N/A,,Mostly Cloudy,300,2013-04-25 17:35:00
12:55 PM,49.1,26.2,41,30.12,10.0,WNW,9.2,-,N/A,,Mostly Cloudy,290,2013-04-25 17:55:00
1:15 PM,47.1,24.8,42,30.13,10.0,WNW,6.9,16.1,N/A,,Mostly Cloudy,300,2013-04-25 18:15:00
1:35 PM,47.7,26.1,43,30.13,10.0,West,10.4,16.1,N/A,,Mostly Cloudy,280,2013-04-25 18:35:00
1:55 PM,48.6,25.3,40,30.14,10.0,West,11.5,17.3,N/A,,Mostly Cloudy,280,2013-04-25 18:55:00
2:15 PM,48.6,24.6,39,30.14,10.0,West,15.0,18.4,N/A,,Mostly Cloudy,280,2013-04-25 19:15:00
2:35 PM,48.9,24.6,39,30.14,10.0,West,11.5,20.7,N/A,,Mostly Cloudy,270,2013-04-25 19:35:00
2:55 PM,50.5,23.2,34,30.14,10.0,West,16.1,-,N/A,,Mostly Cloudy,270,2013-04-25 19:55:00
3:15 PM,48.6,22.3,36,30.15,10.0,WNW,8.1,-,N/A,,Overcast,290,2013-04-25 20:15:00
3:35 PM,50.4,21.6,32,30.15,10.0,WNW,11.5,20.7,N/A,,Mostly Cloudy,290,2013-04-25 20:35:00
3:55 PM,52.0,23.4,33,30.15,10.0,West,12.7,18.4,N/A,,Mostly Cloudy,260,2013-04-25 20:55:00
4:15 PM,50.9,23.4,34,30.15,10.0,WNW,12.7,23.0,N/A,,Scattered Clouds,290,2013-04-25 21:15:00
4:35 PM,51.4,24.1,34,30.15,10.0,West,11.5,17.3,N/A,,Mostly Cloudy,270,2013-04-25 21:35:00
4:55 PM,51.1,23.5,34,30.16,10.0,West,16.1,20.7,N/A,,Mostly Cloudy,280,2013-04-25 21:55:00
5:15 PM,48.6,24.8,39,30.16,10.0,West,12.7,-,N/A,,Scattered Clouds,270,2013-04-25 22:15:00
5:35 PM,49.8,24.1,37,30.17,10.0,West,8.1,11.5,N/A,,Scattered Clouds,280,2013-04-25 22:35:00
5:55 PM,50.0,24.3,37,30.17,10.0,West,10.4,17.3,N/A,,Scattered Clouds,260,2013-04-25 22:55:00
6:15 PM,49.1,23.7,37,30.18,10.0,WSW,11.5,17.3,N/A,,Scattered Clouds,250,2013-04-25 23:15:00
6:35 PM,48.2,23.0,37,30.18,10.0,WSW,11.5,-,N/A,,Clear,250,2013-04-25 23:35:00
6:55 PM,47.7,23.4,38,30.19,10.0,WSW,6.9,-,N/A,,Clear,250,2013-04-25 23:55:00
7:15 PM,46.8,24.3,41,30.19,10.0,WSW,8.1,-,N/A,,Clear,240,2013-04-26 00:15:00
7:35 PM,45.1,25.5,46,30.19,10.0,WSW,4.6,-,N/A,,Clear,250,2013-04-26 00:35:00
7:55 PM,44.2,25.5,48,30.19,10.0,Calm,Calm,-,N/A,,Clear,0,2013-04-26 00:55:00
8:15 PM,39.2,25.5,58,30.19,10.0,Calm,Calm,-,N/A,,Clear,0,2013-04-26 01:15:00
8:35 PM,37.9,25.9,62,30.20,10.0,Calm,Calm,-,N/A,,Clear,0,2013-04-26 01:35:00
8:55 PM,37.6,27.3,66,30.21,10.0,Calm,Calm,-,N/A,,Clear,0,2013-04-26 01:55:00
9:15 PM,36.3,27.3,70,30.21,10.0,Calm,Calm,-,N/A,,Clear,0,2013-04-26 02:15:00
9:35 PM,33.8,28.8,82,30.22,10.0,Calm,Calm,-,N/A,,Clear,0,2013-04-26 02:35:00
9:55 PM,33.3,26.6,77,30.22,10.0,Calm,Calm,-,N/A,,Clear,0,2013-04-26 02:55:00
10:15 PM,32.2,28.4,86,30.23,10.0,Calm,Calm,-,N/A,,Clear,0,2013-04-26 03:15:00
10:35 PM,31.8,27.0,82,30.23,10.0,Calm,Calm,-,N/A,,Clear,0,2013-04-26 03:35:00
10:55 PM,30.9,28.6,91,30.24,10.0,Calm,Calm,-,N/A,,Clear,0,2013-04-26 03:55:00
11:15 PM,30.4,25.3,82,30.25,10.0,Calm,Calm,-,N/A,,Clear,0,2013-04-26 04:15:00
11:35 PM,29.8,27.3,90,30.25,10.0,Calm,Calm,-,N/A,,Clear,0,2013-04-26 04:35:00
11:55 PM,28.9,25.9,88,30.25,10.0,Calm,Calm,-,N/A,,Clear,0,2013-04-26 04:55:00